SK0QO-13 Galo SE current weather conditions

sailwx.info

Wind from 135

Air temperature 13.3° C
Dewpoint 2.0° C

Last reported at 2019-Sep-20 15:05 UTC.
Time now 2019-Sep-20 16:16 UTC

Location: N 59°06' E 018°15'.
View on Google Maps.

See reports from other nearby stations

  
Tides and Currents Weather Stations Pressure Air Temp Water Temp Dewpoint Dewpoint Depression Visibility Wind Speed Wind Dir Waves Ship Positions
date/time (UTC)wind fromknots sea level pressurealtimeterstation pressurevisibilityair tempwater tempwave heightnotes
2019-Sep-20 15:05 135 13.3
2019-Sep-20 14:55 090 13.3
2019-Sep-20 14:45 180 13.3
2019-Sep-20 14:35 135 13.3
2019-Sep-20 14:25 225 13.3
2019-Sep-20 14:14 243 13.9
2019-Sep-20 14:04 225 13.9
2019-Sep-20 13:54 225 14.4
2019-Sep-20 13:44 180 14.4
2019-Sep-20 13:34 067 14.4
2019-Sep-20 13:24 180 14.4
2019-Sep-20 13:14 150 15.0
2019-Sep-20 13:04 160 15.0
2019-Sep-20 12:54 216 15.0
2019-Sep-20 12:44 270 15.6
2019-Sep-20 12:34 270 15.6
2019-Sep-20 12:24 145 15.6
2019-Sep-20 12:04 270 15.0
2019-Sep-20 11:54 022 15.0
2019-Sep-20 11:44 288 15.0
2019-Sep-20 11:24 180 14.4
2019-Sep-20 11:14 135 13.9
2019-Sep-20 11:04 13.9
2019-Sep-20 10:54 045 13.3
2019-Sep-20 10:44 045 13.3
2019-Sep-20 10:34 288 13.3
2019-Sep-20 10:24 12.8
2019-Sep-20 10:14 067 12.8
2019-Sep-20 10:04 315 12.8
2019-Sep-20 09:54 12.8
2019-Sep-20 09:44 12.2
2019-Sep-20 09:34 11.7
2019-Sep-20 09:24 11.7
2019-Sep-20 09:14 270 11.1
2019-Sep-20 09:04 10.6
2019-Sep-20 08:54 270 10.6
2019-Sep-20 08:44 045 10.0
2019-Sep-20 08:34 270 9.4
2019-Sep-20 08:24 9.4
2019-Sep-20 08:14 270 8.9
2019-Sep-20 08:04 270 8.9
2019-Sep-20 07:54 8.3
2019-Sep-20 07:44 7.8
2019-Sep-20 07:34 7.8
2019-Sep-20 07:24 7.2
2019-Sep-20 07:14 7.2
2019-Sep-20 07:04 6.7
2019-Sep-20 06:54 067 6.7
2019-Sep-20 06:44 270 6.1
2019-Sep-20 06:34 270 6.1
2019-Sep-20 06:14 270 5.6
2019-Sep-20 06:04 270 5.6
2019-Sep-20 05:54 270 5.0
2019-Sep-20 05:44 270 5.0
2019-Sep-20 05:34 270 4.4
2019-Sep-20 05:24 270 4.4
2019-Sep-20 05:14 270 4.4
2019-Sep-20 05:04 270 4.4
2019-Sep-20 04:54 270 4.4
2019-Sep-20 04:44 270 3.9
2019-Sep-20 04:34 270 3.9
2019-Sep-20 04:24 270 3.9
2019-Sep-20 04:14 270 3.9
2019-Sep-20 04:04 270 3.9
2019-Sep-20 03:54 270 3.9
2019-Sep-20 03:44 270 3.9
2019-Sep-20 03:34 270 3.9
2019-Sep-20 03:24 270 3.9
2019-Sep-20 03:14 270 3.9
2019-Sep-20 03:04 270 3.9
2019-Sep-20 02:54 270 3.9
2019-Sep-20 02:44 270 4.4
2019-Sep-20 02:34 270 4.4
2019-Sep-20 02:24 270 4.4
2019-Sep-20 02:14 270 4.4
2019-Sep-20 02:04 270 4.4
2019-Sep-20 01:54 270 4.4
2019-Sep-20 01:44 090 4.4
2019-Sep-20 01:34 090 4.4
2019-Sep-20 01:24 090 4.4
2019-Sep-20 01:14 090 4.4
2019-Sep-20 01:04 090 4.4
2019-Sep-20 00:54 090 4.4
2019-Sep-20 00:44 090 4.4
2019-Sep-20 00:34 090 4.4
2019-Sep-20 00:24 090 4.4
2019-Sep-20 00:14 090 4.4
2019-Sep-20 00:04 090 4.4
2019-Sep-19 23:54 090 4.4
2019-Sep-19 23:44 090 4.4
2019-Sep-19 23:34 090 4.4
2019-Sep-19 23:24 090 4.4
2019-Sep-19 23:14 090 4.4
2019-Sep-19 23:04 090 4.4
2019-Sep-19 22:54 090 4.4
2019-Sep-19 22:44 090 4.4
2019-Sep-19 22:34 090 4.4
2019-Sep-19 22:24 090 4.4
2019-Sep-19 22:14 090 4.4
2019-Sep-19 22:04 090 4.4
2019-Sep-19 21:54 090 4.4
2019-Sep-19 21:44 090 4.4
2019-Sep-19 21:24 090 5.0
2019-Sep-19 21:14 090 5.0
2019-Sep-19 21:04 090 5.0
2019-Sep-19 20:54 090 5.6
2019-Sep-19 20:44 090 5.6
2019-Sep-19 20:34 090 5.6
2019-Sep-19 20:24 090 5.6
2019-Sep-19 20:14 090 6.1
2019-Sep-19 20:04 090 6.1
2019-Sep-19 19:54 090 6.1
2019-Sep-19 19:44 090 6.1
2019-Sep-19 19:34 090 6.7
2019-Sep-19 19:24 090 6.7
2019-Sep-19 19:14 090 6.7
2019-Sep-19 19:04 090 6.7
2019-Sep-19 18:54 090 7.2
2019-Sep-19 18:44 090 7.2
2019-Sep-19 18:34 090 7.8
2019-Sep-19 18:24 090 7.8
2019-Sep-19 18:14 090 7.8
2019-Sep-19 18:04 090 8.3
2019-Sep-19 17:54 090 8.3
2019-Sep-19 17:44 090 8.9
2019-Sep-19 17:34 090 9.4
2019-Sep-19 17:24 090 9.4
2019-Sep-19 17:14 090 10.0
2019-Sep-19 17:04 090 10.6
2019-Sep-19 16:54 090 10.6
2019-Sep-19 16:44 090 11.1
2019-Sep-19 16:34 270 11.1
2019-Sep-19 16:24 270 11.7
2019-Sep-19 16:14 11.7
2019-Sep-19 16:04 11.7
2019-Sep-19 15:54 279 11.7
2019-Sep-19 15:44 12.2
2019-Sep-19 15:34 12.2
2019-Sep-19 15:24 351 12.2
2019-Sep-19 15:14 12.2
2019-Sep-19 15:04 12.2
2019-Sep-19 14:54 288 12.2
2019-Sep-19 14:44 12.2
2019-Sep-19 14:34 342 12.8
2019-Sep-19 14:24 270 12.8
2019-Sep-19 14:14 12.8
2019-Sep-19 14:04 324 12.8
2019-Sep-19 13:54 045 12.8
2019-Sep-19 13:44 12.8
2019-Sep-19 13:34 351 13.3
2019-Sep-19 13:24 12.8
2019-Sep-19 13:14 279 12.8
2019-Sep-19 13:04 297 12.8
2019-Sep-19 12:54 12.8
2019-Sep-19 12:44 12.8
2019-Sep-19 12:34 351 12.8
2019-Sep-19 12:24 315 12.2
2019-Sep-19 12:14 333 12.8
2019-Sep-19 12:03 12.2
2019-Sep-19 11:53 11.7
2019-Sep-19 11:43 11.7
2019-Sep-19 11:33 324 11.7
2019-Sep-19 11:23 288 11.7
2019-Sep-19 11:13 297 11.7
2019-Sep-19 11:03 11.7
2019-Sep-19 10:53 11.7
2019-Sep-19 10:43 324 11.7
2019-Sep-19 10:33 288 11.7
2019-Sep-19 10:23 11.1
2019-Sep-19 10:13 11.1
2019-Sep-19 10:03 11.1
2019-Sep-19 09:53 324 11.1
2019-Sep-19 09:43 333 11.1
2019-Sep-19 09:33 288 11.1
2019-Sep-19 09:23 351 11.1
2019-Sep-19 09:13 351 11.1
2019-Sep-19 09:03 045 10.6
2019-Sep-19 08:53 324 10.6
2019-Sep-19 08:43 10.0
2019-Sep-19 08:33 045 10.0
2019-Sep-19 08:13 270 10.0
2019-Sep-19 08:03 342 9.4
2019-Sep-19 07:53 297 9.4
2019-Sep-19 07:43 279 9.4
2019-Sep-19 07:33 270 9.4
2019-Sep-19 07:13 288 8.9
2019-Sep-19 07:03 270 8.9
2019-Sep-19 06:54 270 8.3
2019-Sep-19 06:43 288 8.3
2019-Sep-19 06:33 8.3
2019-Sep-19 06:13 7.8
2019-Sep-19 06:03 7.8
2019-Sep-19 05:53 7.8
2019-Sep-19 05:43 7.8
2019-Sep-19 05:33 7.8
2019-Sep-19 05:23 7.8
2019-Sep-19 05:13 315 7.8
2019-Sep-19 05:03 270 7.8
2019-Sep-19 04:53 279 7.2
2019-Sep-19 04:43 315 7.2
2019-Sep-19 04:33 270 7.2
2019-Sep-19 04:23 270 7.2
2019-Sep-19 04:13 351 6.7
2019-Sep-19 04:03 279 6.7
2019-Sep-19 03:53 010 6.7
2019-Sep-19 03:43 270 6.7
2019-Sep-19 03:33 270 6.7
2019-Sep-19 03:23 270 6.7
2019-Sep-19 03:13 333 6.7
2019-Sep-19 03:03 270 6.7
2019-Sep-19 02:53 279 6.7
2019-Sep-19 02:43 297 6.7
2019-Sep-19 02:33 270 6.7
2019-Sep-19 02:23 333 6.7
2019-Sep-19 02:13 270 6.7
2019-Sep-19 02:03 315 6.7
2019-Sep-19 01:43 342 6.7
2019-Sep-19 01:33 270 6.7
2019-Sep-19 01:23 6.7
2019-Sep-19 01:13 6.7
2019-Sep-19 01:03 6.1
2019-Sep-19 00:53 045 6.1
2019-Sep-19 00:43 045 6.1
2019-Sep-19 00:33 045 6.1
2019-Sep-19 00:23 045 6.1
2019-Sep-19 00:13 045 6.1
2019-Sep-19 00:03 045 6.1
2019-Sep-18 23:53 045 6.7
2019-Sep-18 23:43 045 6.7
2019-Sep-18 23:23 045 6.7
2019-Sep-18 23:13 045 6.7
2019-Sep-18 23:03 045 7.2
2019-Sep-18 22:53 045 7.2
2019-Sep-18 22:43 045 7.2
2019-Sep-18 22:33 045 7.2
2019-Sep-18 22:23 045 7.2
2019-Sep-18 22:13 225 7.2
2019-Sep-18 22:03 180 7.2
2019-Sep-18 21:53 180 7.2
2019-Sep-18 21:43 180 7.8
2019-Sep-18 21:33 022 7.8
2019-Sep-18 21:23 045 7.8
2019-Sep-18 21:13 045 7.8
2019-Sep-18 21:03 045 8.3
2019-Sep-18 20:53 045 8.3
2019-Sep-18 20:43 045 8.3
2019-Sep-18 20:33 270 8.9
2019-Sep-18 20:23 270 8.9
2019-Sep-18 20:13 8.9
2019-Sep-18 20:03 270 8.9
2019-Sep-18 19:53 9.4
2019-Sep-18 19:43 225 9.4
2019-Sep-18 19:33 225 9.4
2019-Sep-18 19:23 180 9.4
2019-Sep-18 19:13 9.4
2019-Sep-18 19:03 10.0
2019-Sep-18 18:53 10.0
2019-Sep-18 18:43 10.6
2019-Sep-18 18:33 10.6
2019-Sep-18 18:23 10.6
2019-Sep-18 18:13 11.1
2019-Sep-18 18:03 030 11.1
2019-Sep-18 17:53 324 11.1
2019-Sep-18 17:43 270 11.7
2019-Sep-18 17:33 270 11.7
2019-Sep-18 17:23 270 11.7
2019-Sep-18 17:13 279 11.7
2019-Sep-18 17:03 288 11.7
2019-Sep-18 16:53 342 12.2
2019-Sep-18 16:33 270 12.2
2019-Sep-18 16:23 270 12.2
2019-Sep-18 16:13 279 12.2
2019-Sep-18 16:03 270 12.8